Madison, MN

6:29 PM CST on December 07, 2019 (GMT -0600)
Madison-Lac Qui Parle County

Weather History for KDXX - September, 2019

Change the Weather History Date:

Wednesday, September 18, 2019

  Actual Average (KAQP) Record (KAQP)
Temperature  
Mean Temperature 72 °F -  
Max Temperature 80 °F 69 °F 93 °F (1998)
Min Temperature 64 °F 45 °F 35 °F (2007)
Cooling Degree Days 7    
Growing Degree Days 22 (Base 50)    
Moisture  
Dew Point 64 °F    
Average Humidity 71    
Maximum Humidity 94    
Minimum Humidity 45    
Precipitation  
Precipitation 0.00 in - - ()
Sea Level Pressure  
Sea Level Pressure 29.83 in    
Wind  
Wind Speed 10 mph (SW)    
Max Wind Speed 17 mph    
Max Gust Speed 23 mph    
Visibility 10 miles    
Events Rain , Thunderstorm    
Averages and records for this station are not official NWS values.
T = Trace of Precipitation, MM = Missing Value Source: NWS Daily Summary

Daily Weather History Graph

Daily Weather History Graph

Search for Another Location

Airport or City:

Astronomy

Sep. 18, 2019 Rise Set
Actual Time 7:06 AM CDT 7:30 PM CDT
Civil Twilight 6:37 AM CDT 7:59 PM CDT
Nautical Twilight 6:02 AM CDT 8:34 PM CDT
Astronomical Twilight 5:26 AM CDT 9:09 PM CDT
Moon 9:54 PM CDT (9/18) 11:20 AM CDT (9/18)
Length of Visible Light 13h 22m
Length of Day
12h 23m
Waning Gibbous, 82% of the Moon is Illuminated
Sep 18
Waning Gibbous
Sep 21
Last Quarter
Sep 28
New
Oct 5
First Quarter
Oct 13
Full

Hourly Weather History & Observations

Time (CDT) Temp. Heat Index Dew Point Humidity Pressure Visibility Wind Dir Wind Speed Gust Speed Precip Events Conditions
12:16 AM 78.8 °F - 68.0 °F 69% 29.75 in 10.0 mi South 11.5 mph - N/A   Clear
12:35 AM 78.8 °F - 68.0 °F 69% 29.75 in 10.0 mi South 12.7 mph 18.4 mph N/A   Scattered Clouds
12:36 AM 78.8 °F - 68.0 °F 69% 29.75 in 10.0 mi South 12.7 mph 18.4 mph N/A   Scattered Clouds
12:55 AM 80.6 °F 83.2 °F 68.0 °F 65% 29.74 in 10.0 mi South 13.8 mph 19.6 mph N/A   Scattered Clouds
12:56 AM 80.6 °F 83.2 °F 68.0 °F 65% 29.74 in 10.0 mi South 13.8 mph 19.6 mph N/A   Scattered Clouds
1:19 AM 80.6 °F 83.2 °F 68.0 °F 65% 29.73 in 10.0 mi South 12.7 mph 19.6 mph N/A   Mostly Cloudy
1:36 AM 80.6 °F 83.2 °F 68.0 °F 65% 29.72 in 10.0 mi South 13.8 mph 23.0 mph N/A   Mostly Cloudy
1:56 AM 78.8 °F - 68.0 °F 69% 29.73 in 10.0 mi South 13.8 mph 20.7 mph N/A Thunderstorm Mostly Cloudy
2:15 AM 78.8 °F - 69.8 °F 74% 29.74 in 10.0 mi SSW 11.5 mph 18.4 mph N/A   Mostly Cloudy
2:16 AM 78.8 °F - 69.8 °F 74% 29.74 in 10.0 mi SSW 12.7 mph 18.4 mph N/A   Mostly Cloudy
2:35 AM 75.2 °F - 68.0 °F 78% 29.77 in 10.0 mi WNW 11.5 mph 16.1 mph N/A Rain , Thunderstorm Light Thunderstorms and Rain
2:40 AM 75.2 °F - 68.0 °F 78% 29.76 in 10.0 mi West 4.6 mph - N/A Rain Light Rain
2:57 AM 75.2 °F - 68.0 °F 78% 29.77 in 10.0 mi Calm Calm - N/A   Overcast
3:15 AM 73.4 °F - 69.8 °F 88% 29.76 in 10.0 mi East 4.6 mph - N/A   Overcast
3:35 AM 73.4 °F - 69.8 °F 88% 29.75 in 10.0 mi East 8.1 mph - N/A   Mostly Cloudy
3:36 AM 73.4 °F - 69.8 °F 88% 29.75 in 10.0 mi East 8.1 mph - N/A   Mostly Cloudy
3:55 AM 73.4 °F - 69.8 °F 88% 29.73 in 10.0 mi ESE 8.1 mph - N/A   Scattered Clouds
3:56 AM 73.4 °F - 69.8 °F 88% 29.73 in 10.0 mi ESE 6.9 mph - N/A   Scattered Clouds
4:19 AM 73.4 °F - 71.6 °F 94% 29.74 in 10.0 mi SE 8.1 mph - N/A   Clear
4:37 AM 73.4 °F - 71.6 °F 94% 29.74 in 10.0 mi SSE 6.9 mph - N/A   Clear
4:56 AM 73.4 °F - 71.6 °F 94% 29.73 in 10.0 mi SE 6.9 mph - N/A   Clear
5:15 AM 73.4 °F - 71.6 °F 94% 29.73 in 10.0 mi SE 6.9 mph - N/A   Clear
5:35 AM 73.4 °F - 71.6 °F 94% 29.74 in 10.0 mi SSE 9.2 mph - N/A   Clear
5:39 AM 73.4 °F - 71.6 °F 94% 29.74 in 10.0 mi SSE 9.2 mph - N/A   Clear
5:57 AM 73.4 °F - 69.8 °F 88% 29.75 in 10.0 mi SSE 6.9 mph - N/A   Clear
6:16 AM 71.6 °F - 69.8 °F 94% 29.76 in 10.0 mi SSE 6.9 mph - N/A   Clear
6:35 AM 73.4 °F - 69.8 °F 88% 29.76 in 10.0 mi South 6.9 mph - N/A   Clear
6:36 AM 73.4 °F - 69.8 °F 88% 29.76 in 10.0 mi South 6.9 mph - N/A   Clear
6:55 AM 73.4 °F - 69.8 °F 88% 29.77 in 10.0 mi South 5.8 mph - N/A   Clear
6:56 AM 73.4 °F - 69.8 °F 88% 29.77 in 10.0 mi South 5.8 mph - N/A   Clear
7:18 AM 71.6 °F - 69.8 °F 94% 29.77 in 10.0 mi South 3.5 mph - N/A   Clear
7:36 AM 71.6 °F - 69.8 °F 94% 29.77 in 7.0 mi South 4.6 mph - N/A   Clear
7:55 AM 71.6 °F - 69.8 °F 94% 29.78 in 7.0 mi SSW 4.6 mph - N/A   Clear
7:56 AM 71.6 °F - 69.8 °F 94% 29.78 in 7.0 mi SSW 4.6 mph - N/A   Clear
8:15 AM 73.4 °F - 69.8 °F 88% 29.78 in 10.0 mi SSW 5.8 mph - N/A   Clear
8:16 AM 73.4 °F - 69.8 °F 88% 29.78 in 10.0 mi SSW 5.8 mph - N/A   Clear
8:35 AM 73.4 °F - 69.8 °F 88% 29.79 in 10.0 mi SW 6.9 mph - N/A   Clear
8:40 AM 73.4 °F - 69.8 °F 88% 29.79 in 10.0 mi SW 6.9 mph - N/A   Clear
8:57 AM 75.2 °F - 68.0 °F 78% 29.79 in 10.0 mi WSW 8.1 mph - N/A   Clear
9:16 AM 75.2 °F - 66.2 °F 73% 29.80 in 10.0 mi West 10.4 mph - N/A   Clear
9:35 AM 75.2 °F - 64.4 °F 69% 29.80 in 10.0 mi WSW 9.2 mph - N/A   Clear
9:55 AM 75.2 °F - 62.6 °F 65% 29.82 in 10.0 mi West 8.1 mph - N/A   Clear
9:59 AM 75.2 °F - 62.6 °F 65% 29.82 in 10.0 mi West 10.4 mph - N/A   Clear
10:17 AM 75.2 °F - 60.8 °F 61% 29.82 in 10.0 mi West 10.4 mph - N/A   Clear
10:36 AM 73.4 °F - 57.2 °F 57% 29.83 in 10.0 mi West 10.4 mph 19.6 mph N/A   Clear
10:55 AM 75.2 °F - 57.2 °F 53% 29.83 in 10.0 mi West 9.2 mph - N/A   Clear
10:56 AM 75.2 °F - 57.2 °F 53% 29.83 in 10.0 mi West 10.4 mph - N/A   Clear
11:15 AM 75.2 °F - 57.2 °F 53% 29.83 in 10.0 mi WSW 9.2 mph - N/A   Clear
11:37 AM 75.2 °F - 59.0 °F 57% 29.84 in 10.0 mi WSW 8.1 mph - N/A   Clear
11:56 AM 75.2 °F - 57.2 °F 53% 29.84 in 10.0 mi WSW 11.5 mph 16.1 mph N/A   Clear
12:15 PM 77.0 °F - 59.0 °F 54% 29.84 in 10.0 mi WSW 12.7 mph - N/A   Clear
12:16 PM 77.0 °F - 59.0 °F 54% 29.84 in 10.0 mi SW 11.5 mph - N/A   Clear
12:35 PM 78.8 °F - 59.0 °F 51% 29.85 in 10.0 mi WSW 12.7 mph 19.6 mph N/A   Clear
12:36 PM 78.8 °F - 59.0 °F 51% 29.85 in 10.0 mi WSW 12.7 mph 19.6 mph N/A   Clear
12:59 PM 78.8 °F - 59.0 °F 51% 29.85 in 10.0 mi WSW 11.5 mph 16.1 mph N/A   Clear
1:16 PM 78.8 °F - 59.0 °F 51% 29.85 in 10.0 mi WSW 11.5 mph 18.4 mph N/A   Clear
1:36 PM 78.8 °F - 57.2 °F 47% 29.85 in 10.0 mi WSW 12.7 mph 20.7 mph N/A   Clear
1:55 PM 80.6 °F 80.8 °F 57.2 °F 45% 29.85 in 10.0 mi WSW 15.0 mph 18.4 mph N/A   Clear
2:15 PM 80.6 °F 81.1 °F 59.0 °F 48% 29.85 in 10.0 mi WSW 15.0 mph 21.9 mph N/A   Clear
2:19 PM 80.6 °F 81.1 °F 59.0 °F 48% 29.85 in 10.0 mi WSW 15.0 mph 21.9 mph N/A   Clear
2:38 PM 80.6 °F 80.8 °F 57.2 °F 45% 29.85 in 10.0 mi WSW 17.3 mph 23.0 mph N/A   Clear
2:55 PM 80.6 °F 81.1 °F 59.0 °F 48% 29.85 in 10.0 mi WSW 16.1 mph 21.9 mph N/A   Clear
3:15 PM 80.6 °F 81.5 °F 60.8 °F 51% 29.85 in 10.0 mi West 13.8 mph 20.7 mph N/A   Clear
3:16 PM 80.6 °F 81.5 °F 60.8 °F 51% 29.85 in 10.0 mi West 13.8 mph 20.7 mph N/A   Clear
3:35 PM 80.6 °F 81.8 °F 62.6 °F 54% 29.85 in 10.0 mi West 11.5 mph 18.4 mph N/A   Clear
3:58 PM 80.6 °F 81.5 °F 60.8 °F 51% 29.86 in 10.0 mi West 12.7 mph 17.3 mph N/A   Clear
4:16 PM 80.6 °F 81.5 °F 60.8 °F 51% 29.86 in 10.0 mi West 15.0 mph 19.6 mph N/A   Clear
4:35 PM 80.6 °F 81.8 °F 62.6 °F 54% 29.86 in 10.0 mi WSW 12.7 mph 19.6 mph N/A   Clear
4:36 PM 80.6 °F 81.8 °F 62.6 °F 54% 29.86 in 10.0 mi WSW 10.4 mph 19.6 mph N/A   Clear
4:55 PM 80.6 °F 81.8 °F 62.6 °F 54% 29.87 in 10.0 mi West 12.7 mph 17.3 mph N/A   Clear
4:56 PM 80.6 °F 81.8 °F 62.6 °F 54% 29.86 in 10.0 mi West 12.7 mph 17.3 mph N/A   Clear
5:15 PM 78.8 °F - 60.8 °F 54% 29.87 in 10.0 mi West 12.7 mph 19.6 mph N/A   Clear
5:19 PM 78.8 °F - 60.8 °F 54% 29.87 in 10.0 mi West 12.7 mph 19.6 mph N/A   Clear
5:38 PM 78.8 °F - 60.8 °F 54% 29.88 in 10.0 mi West 11.5 mph 18.4 mph N/A   Clear
5:56 PM 78.8 °F - 60.8 °F 54% 29.87 in 10.0 mi West 12.7 mph 18.4 mph N/A   Clear
6:15 PM 78.8 °F - 62.6 °F 57% 29.88 in 10.0 mi West 8.1 mph - N/A   Clear
6:16 PM 78.8 °F - 62.6 °F 57% 29.88 in 10.0 mi West 6.9 mph - N/A   Clear
6:35 PM 77.0 °F - 62.6 °F 61% 29.89 in 10.0 mi West 4.6 mph - N/A   Clear
6:36 PM 77.0 °F - 62.6 °F 61% 29.89 in 10.0 mi West 4.6 mph - N/A   Clear
6:58 PM 75.2 °F - 62.6 °F 65% 29.90 in 10.0 mi Calm Calm - N/A   Clear
7:17 PM 73.4 °F - 62.6 °F 69% 29.90 in 10.0 mi WSW 5.8 mph - N/A   Clear
7:36 PM 73.4 °F - 62.6 °F 69% 29.90 in 10.0 mi WSW 6.9 mph - N/A   Clear
7:56 PM 71.6 °F - 62.6 °F 73% 29.91 in 10.0 mi West 3.5 mph - N/A   Clear
8:15 PM 69.8 °F - 62.6 °F 78% 29.91 in 10.0 mi Calm Calm - N/A   Clear
8:37 PM 68.0 °F - 62.6 °F 83% 29.91 in 10.0 mi WSW 8.1 mph - N/A   Clear
8:55 PM 69.8 °F - 60.8 °F 73% 29.92 in 10.0 mi WSW 5.8 mph - N/A   Clear
9:15 PM 66.2 °F - 60.8 °F 83% 29.93 in 10.0 mi Calm Calm - N/A   Clear
9:35 PM 64.4 °F - 60.8 °F 88% 29.93 in 10.0 mi South 3.5 mph - N/A   Clear
9:36 PM 64.4 °F - 60.8 °F 88% 29.93 in 10.0 mi South 3.5 mph - N/A   Clear
9:59 PM 66.2 °F - 60.8 °F 83% 29.94 in 10.0 mi South 4.6 mph - N/A   Clear
10:16 PM 66.2 °F - 62.6 °F 88% 29.93 in 10.0 mi SSW 4.6 mph - N/A   Clear
10:35 PM 66.2 °F - 62.6 °F 88% 29.94 in 10.0 mi SSW 5.8 mph - N/A   Clear
10:36 PM 64.4 °F - 62.6 °F 94% 29.94 in 10.0 mi SSW 5.8 mph - N/A   Clear
10:55 PM 64.4 °F - 62.6 °F 94% 29.94 in 10.0 mi South 3.5 mph - N/A   Clear
11:18 PM 64.4 °F - 62.6 °F 94% 29.94 in 10.0 mi SSW 5.8 mph - N/A   Clear
11:37 PM 64.4 °F - 62.6 °F 94% 29.94 in 10.0 mi SSW 5.8 mph - N/A   Clear
11:56 PM 64.4 °F - 60.8 °F 88% 29.95 in 10.0 mi South 5.8 mph - N/A   Clear